This is the latest recevied weather packets stored in our database for station/object K5VW. If no packets are shown the sender has not sent any weather packets the latest 1 day(s).
| Time | Temp. | Humidity | Pressure | Rain* | Wind** | Luminosity | Snow |
|---|---|---|---|---|---|---|---|
| 1778001505 | 25° C | 29% | 1007.5 hPa | 0 mm | 2.68 m/s, 211° | - | - |
| 1778001448 | 25° C | 29% | 1007.4 hPa | 0 mm | 2.24 m/s, 237° | - | - |
| 1778001381 | 25° C | 29% | 1007.4 hPa | 0 mm | 2.24 m/s, 225° | - | - |
| 1778001318 | 25° C | 29% | 1007.4 hPa | 0 mm | 2.24 m/s, 253° | - | - |
| 1778001258 | 25° C | 29% | 1007.5 hPa | 0 mm | 1.34 m/s, 229° | - | - |
| 1778001195 | 25° C | 29% | 1007.5 hPa | 0 mm | 1.34 m/s, 231° | - | - |
| 1778001134 | 25° C | 30% | 1007.4 hPa | 0 mm | 0.89 m/s, 218° | - | - |
| 1778001073 | 25° C | 31% | 1007.4 hPa | 0 mm | 0.89 m/s, 234° | - | - |
| 1778001017 | 25° C | 31% | 1007.4 hPa | 0 mm | 0.45 m/s, 265° | - | - |
| 1778000948 | 24.44° C | 32% | 1007.4 hPa | 0 mm | 0.89 m/s, 133° | - | - |
| 1778000892 | 24.44° C | 33% | 1007.2 hPa | 0 mm | 0.89 m/s, 134° | - | - |
| 1778000831 | 24.44° C | 33% | 1007.2 hPa | 0 mm | 0.89 m/s, 209° | - | - |
| 1778000769 | 24.44° C | 33% | 1007.1 hPa | 0 mm | 0.89 m/s, 207° | - | - |
| 1778000711 | 24.44° C | 34% | 1007.1 hPa | 0 mm | 1.34 m/s, 175° | - | - |
| 1778000647 | 24.44° C | 34% | 1007.1 hPa | 0 mm | 1.34 m/s, 88° | - | - |
| 1778000622 | 24.44° C | 33% | 1007.1 hPa | 0 mm | 1.34 m/s, 71° | - | - |
| 1778000524 | 24.44° C | 33% | 1007.1 hPa | 0 mm | 1.34 m/s, 125° | - | - |
| 1778000464 | 24.44° C | 33% | 1007.1 hPa | 0 mm | 1.34 m/s, 126° | - | - |
| 1778000407 | 23.89° C | 33% | 1007.1 hPa | 0 mm | 1.34 m/s, 94° | - | - |
| 1778000346 | 23.89° C | 33% | 1007.1 hPa | 0 mm | 1.34 m/s, 128° | - | - |
| 1778000282 | 23.89° C | 34% | 1007.1 hPa | 0 mm | 1.34 m/s, 110° | - | - |
| 1778000228 | 23.89° C | 34% | 1007.4 hPa | 0 mm | 1.79 m/s, 86° | - | - |
| 1778000153 | 23.89° C | 34% | 1007.4 hPa | 0 mm | 1.79 m/s, 97° | - | - |
| 1778000095 | 23.89° C | 34% | 1007.4 hPa | 0 mm | 1.34 m/s, 101° | - | - |
| 1778000025 | 23.89° C | 34% | 1007.4 hPa | 0 mm | 1.34 m/s, 119° | - | - |
* Rain latest hour (hover to see other rain measurements)
** Current wind speed in m/s (hover to see current wind gust speed)